FW6618 Weather Reports


time (UTC)temp
F
wind
direction
speed
knots
gust
knots
rain 1hr
in
rain 24hr
in
rain mn
in
humidity
%
barometer
mb
20260510123037 55 201 1.7 8.7 0.00 0.36 0.00 88 1012.4
20260510122516 55 338 2.6 8.7 0.00 0.36 0.00 89 1012.4
20260510122018 54 316 0.9 3.5 0.00 0.36 0.00 90 1012.2
20260510121536 54 335 0.9 3.5 0.00 0.36 0.00 91 1012.4
20260510121020 54 56 0.9 3.5 0.00 0.36 0.00 93 1012.5
20260510120521 53 257 0.9 4.3 0.00 0.36 0.00 92 1012.7
20260510120036 53 254 0.9 4.3 0.00 0.36 0.00 94 1012.6
20260510115523 53 236 0.9 4.3 0.00 0.36 0.00 94 1012.5
20260510115018 52 348 0.0 4.3 0.00 0.36 0.00 95 1012.5
20260510114534 52 233 0.9 4.3 0.00 0.36 0.00 96 1012.4
20260510114016 52 139 0.9 5.2 0.00 0.36 0.00 96 1012.4
20260510113517 51 220 1.7 5.2 0.00 0.36 0.00 96 1012.5
20260510113037 51 141 0.0 1.7 0.00 0.36 0.00 96 1012.3
20260510112521 50 200 0.0 1.7 0.00 0.36 0.00 96 1012.3
20260510112020 50 342 0.0 0.9 0.00 0.36 0.00 96 1012.4
20260510111544 49 344 0.0 0.9 0.00 0.36 0.00 96 1012.4
20260510111024 49 342 0.0 0.9 0.00 0.36 0.00 96 1012.2
20260510110521 49 75 0.0 0.9 0.00 0.36 0.00 96 1012.3
20260510110037 49 0 0.0 0.9 0.00 0.36 0.00 96 1012.1
20260510105520 48 76 0.0 0.9 0.00 0.36 0.00 96 1012.1
20260510105020 48 76 0.0 1.7 0.00 0.36 0.00 96 1012.0
20260510104545 48 0 0.0 1.7 0.00 0.36 0.00 96 1011.8
20260510104021 48 0 0.0 4.3 0.00 0.36 0.00 96 1012.0
20260510103521 48 0 0.9 4.3 0.00 0.36 0.00 96 1011.8
20260510103034 48 341 0.9 2.6 0.00 0.36 0.00 96 1011.7
20260510102519 47 0 0.0 0.0 0.00 0.36 0.00 96 1011.7
20260510102023 47 0 0.0 0.0 0.00 0.36 0.00 96 1011.7
20260510101539 47 0 0.0 0.0 0.00 0.36 0.00 96 1011.5
20260510101020 47 0 0.0 0.0 0.00 0.36 0.00 96 1011.5
20260510100520 47 0 0.0 0.0 0.00 0.36 0.00 96 1011.5
20260510100032 47 0 0.0 0.0 0.00 0.36 0.00 96 1011.4
20260510095521 47 0 0.0 0.0 0.00 0.36 0.00 96 1011.2
20260510095020 47 0 0.0 0.0 0.00 0.36 0.00 96 1011.1
20260510094537 47 0 0.0 0.0 0.00 0.36 0.00 96 1011.0
20260510094020 47 0 0.0 0.0 0.00 0.36 0.00 96 1010.9
20260510093522 47 0 0.0 0.0 0.00 0.36 0.00 96 1010.7
20260510093042 47 0 0.0 0.0 0.00 0.36 0.00 96 1010.6
20260510092520 47 0 0.0 0.0 0.00 0.36 0.00 96 1010.8
20260510092022 47 0 0.0 0.0 0.00 0.36 0.00 96 1010.9
20260510091536 47 0 0.0 0.0 0.00 0.36 0.00 96 1011.0
20260510091019 47 0 0.0 0.0 0.00 0.36 0.00 96 1011.0
20260510090518 48 0 0.0 0.0 0.00 0.36 0.00 96 1011.0
20260510090036 48 0 0.0 0.0 0.00 0.36 0.00 96 1011.1
20260510085516 48 0 0.0 0.9 0.00 0.36 0.00 96 1011.0
20260510085020 48 0 0.0 0.9 0.00 0.36 0.00 96 1011.1
20260510084537 48 0 0.0 0.9 0.00 0.36 0.00 96 1010.9
20260510084020 48 308 0.0 0.9 0.00 0.36 0.00 96 1011.0
20260510083520 48 0 0.0 0.9 0.00 0.36 0.00 96 1011.0
20260510083038 48 309 0.0 0.9 0.00 0.36 0.00 96 1010.8
20260510082517 48 309 0.0 0.9 0.00 0.36 0.00 96 1010.6
20260510082016 48 0 0.0 0.9 0.00 0.36 0.00 96 1010.8
20260510081547 48 309 0.9 1.7 0.00 0.36 0.00 96 1011.0
20260510081020 48 308 0.0 1.7 0.00 0.36 0.00 96 1011.2
20260510080519 48 271 0.0 1.7 0.00 0.36 0.00 96 1011.3
20260510080031 48 299 0.0 0.9 0.00 0.36 0.00 96 1011.7
20260510075518 48 295 0.0 0.9 0.00 0.36 0.00 96 1011.9
20260510075016 48 0 0.0 0.9 0.00 0.36 0.00 96 1011.6
20260510074537 49 297 0.0 0.9 0.00 0.36 0.00 96 1011.4
20260510074021 49 0 0.0 0.9 0.00 0.36 0.00 96 1011.5
20260510073519 49 0 0.0 0.9 0.00 0.36 0.00 96 1011.7
20260510073050 48 333 0.0 0.9 0.00 0.36 0.00 96 1011.8
20260510072526 48 0 0.0 0.0 0.00 0.36 0.00 96 1011.7
20260510072017 49 0 0.0 0.0 0.00 0.36 0.00 96 1011.7
20260510071534 48 0 0.0 0.0 0.00 0.36 0.00 96 1011.7
20260510071017 48 0 0.0 0.0 0.00 0.36 0.00 96 1011.5
20260510070517 48 0 0.0 0.9 0.00 0.36 0.00 96 1011.6
20260510070037 49 0 0.0 0.9 0.00 0.36 0.00 96 1011.3
20260510065518 49 243 0.0 1.7 0.00 0.36 0.00 96 1011.3
20260510065021 49 200 0.0 1.7 0.00 0.36 0.00 96 1011.3
20260510064545 49 37 0.0 2.6 0.00 0.36 0.00 96 1011.3
20260510064016 49 274 0.0 2.6 0.00 0.36 0.00 96 1011.3
20260510063518 48 92 0.0 1.7 0.00 0.36 0.00 96 1011.2
20260510063041 48 226 0.0 2.6 0.00 0.36 0.00 96 1011.2
20260510062518 49 327 0.9 4.3 0.00 0.36 0.00 96 1011.1
20260510062022 49 211 0.9 4.3 0.00 0.36 0.00 96 1011.3
20260510061541 48 188 0.9 2.6 0.00 0.36 0.00 96 1011.4
20260510061018 47 0 0.0 0.0 0.00 0.36 0.00 96 1011.4
20260510060518 47 0 0.0 0.0 0.00 0.36 0.00 96 1011.4
20260510060043 47 0 0.0 0.0 0.00 0.36 0.00 96 1011.4
20260510055518 47 0 0.0 0.0 0.00 0.36 0.00 96 1011.3
20260510055020 47 0 0.0 0.0 0.00 0.36 0.00 96 1011.3
20260510054535 47 0 0.0 0.0 0.00 0.36 0.00 96 1011.4
20260510054021 47 0 0.0 0.0 0.00 0.36 0.00 96 1011.2
20260510053516 47 0 0.0 0.0 0.00 0.36 0.00 96 1011.4
20260510053041 47 0 0.0 0.0 0.00 0.36 0.00 96 1011.5
20260510052518 47 0 0.0 0.0 0.00 0.36 0.00 96 1011.3
20260510052017 47 0 0.0 0.0 0.00 0.36 0.00 96 1011.3
20260510051542 47 0 0.0 0.0 0.00 0.36 0.00 96 1011.4
20260510051021 47 0 0.0 0.0 0.00 0.36 0.00 96 1011.5
20260510050519 47 0 0.0 0.0 0.00 0.36 0.00 96 1011.5
20260510050038 47 0 0.0 0.0 0.00 0.36 0.00 96 1011.5
20260510045519 47 0 0.0 0.0 0.00 0.36 0.00 96 1011.7
20260510045020 47 0 0.0 0.0 0.00 0.36 0.00 96 1011.6
20260510044546 47 0 0.0 0.0 0.00 0.36 0.00 96 1011.6
20260510044018 47 0 0.0 0.0 0.00 0.36 0.00 96 1011.4
20260510043518 47 0 0.0 0.0 0.00 0.36 0.00 96 1011.5
20260510043037 47 0 0.0 0.0 0.00 0.36 0.00 96 1011.5
20260510042519 47 0 0.0 0.0 0.00 0.36 0.00 96 1011.5
20260510042018 47 0 0.0 0.0 0.00 0.36 0.00 96 1011.6
20260510041534 47 0 0.0 0.0 0.00 0.36 0.00 96 1011.6
20260510041019 47 0 0.0 0.0 0.00 0.36 0.00 96 1011.7
20260510040527 47 0 0.0 0.0 0.00 0.36 0.00 96 1011.6
20260510040043 47 0 0.0 0.0 0.00 0.36 0.00 96 1011.7
20260510035519 47 0 0.0 0.0 0.00 0.36 0.36 96 1011.7
20260510035021 47 0 0.0 0.0 0.00 0.36 0.36 96 1011.6
20260510034537 47 0 0.0 0.0 0.00 0.36 0.36 96 1011.6
20260510034018 47 0 0.0 0.0 0.00 0.36 0.36 96 1011.7
20260510033517 47 0 0.0 0.0 0.00 0.36 0.36 95 1011.7
20260510033054 47 0 0.0 0.0 0.00 0.36 0.36 96 1011.8
20260510032518 47 0 0.0 0.0 0.00 0.36 0.36 95 1011.8
20260510032023 47 0 0.0 0.0 0.00 0.36 0.36 96 1011.8
20260510031539 47 0 0.0 0.0 0.00 0.36 0.36 95 1011.9
20260510031021 47 0 0.0 0.0 0.00 0.36 0.36 96 1011.9
20260510030529 47 0 0.0 0.0 0.00 0.36 0.36 95 1011.9
20260510030044 47 0 0.0 0.0 0.00 0.36 0.36 96 1011.9
20260510025518 47 0 0.0 0.0 0.00 0.36 0.36 96 1011.9
20260510025023 47 0 0.0 0.0 0.00 0.36 0.36 95 1011.8
20260510024535 47 0 0.0 0.0 0.00 0.36 0.36 96 1011.9
20260510024018 47 0 0.0 0.0 0.00 0.36 0.36 95 1011.8
20260510023519 47 0 0.0 0.0 0.00 0.36 0.36 95 1012.0
20260510023037 47 0 0.0 0.0 0.00 0.36 0.36 95 1011.8
20260510022533 47 0 0.0 0.0 0.00 0.36 0.36 95 1011.8
20260510022020 47 0 0.0 0.0 0.00 0.36 0.36 95 1011.9
20260510021535 47 0 0.0 0.0 0.00 0.36 0.36 95 1011.9
20260510021016 47 0 0.0 0.0 0.00 0.36 0.36 95 1011.8
20260510020519 47 0 0.0 0.0 0.00 0.36 0.36 95 1012.0
20260510020037 47 0 0.0 0.0 0.00 0.36 0.36 95 1012.0
20260510015517 47 0 0.0 0.0 0.00 0.36 0.36 95 1011.9
20260510015026 47 0 0.0 0.0 0.00 0.36 0.36 95 1012.0
20260510014539 47 0 0.0 0.0 0.00 0.36 0.36 95 1012.1
20260510014022 47 0 0.0 0.0 0.00 0.36 0.36 95 1012.0
20260510013517 47 0 0.0 0.0 0.00 0.36 0.36 95 1012.1
20260510013037 47 0 0.0 0.0 0.00 0.36 0.36 95 1012.0
20260510012519 47 0 0.0 0.0 0.00 0.36 0.36 95 1011.9
20260510012020 47 0 0.0 0.0 0.00 0.36 0.36 95 1011.8
20260510011538 47 0 0.0 0.0 0.00 0.36 0.36 95 1011.9
20260510011019 47 0 0.0 0.0 0.00 0.36 0.36 95 1012.0
20260510010520 47 0 0.0 0.0 0.00 0.36 0.36 95 1012.0
20260510010037 48 0 0.0 0.0 0.00 0.36 0.36 95 1011.9
20260510005520 48 0 0.0 0.0 0.00 0.36 0.36 95 1011.9
20260510005019 48 0 0.0 0.0 0.00 0.36 0.36 95 1011.9
20260510004541 48 0 0.0 0.0 0.00 0.36 0.36 95 1011.8
20260510004019 48 0 0.0 0.0 0.00 0.36 0.36 95 1011.7
20260510003519 48 0 0.0 0.0 0.00 0.36 0.36 95 1011.8
20260510003045 48 0 0.0 0.0 0.00 0.36 0.36 95 1011.6
20260510002517 48 0 0.0 0.0 0.00 0.36 0.36 95 1011.5
20260510002022 48 0 0.0 0.0 0.00 0.36 0.36 95 1011.4
20260510001537 48 0 0.0 0.0 0.00 0.36 0.36 95 1011.5
20260510001017 48 0 0.0 0.0 0.00 0.36 0.36 95 1011.5
20260510000520 49 0 0.0 0.0 0.00 0.36 0.36 95 1011.5
20260510000040 49 0 0.0 0.0 0.00 0.36 0.36 95 1011.3
20260509235520 49 0 0.0 0.0 0.00 0.36 0.36 95 1011.2
20260509235024 49 0 0.0 0.0 0.00 0.36 0.36 95 1011.2
20260509234542 49 0 0.0 0.0 0.00 0.36 0.36 95 1011.0
20260509234020 49 0 0.0 0.0 0.00 0.36 0.36 95 1010.9
20260509233520 49 0 0.0 0.0 0.00 0.36 0.36 95 1010.8
20260509233041 49 0 0.0 0.0 0.00 0.36 0.36 95 1010.8
20260509232520 49 0 0.0 0.0 0.00 0.36 0.36 95 1010.9
20260509232017 49 0 0.0 0.0 0.00 0.36 0.36 95 1010.8
20260509231536 49 0 0.0 0.0 0.00 0.36 0.36 95 1010.9
20260509231022 49 0 0.0 0.0 0.00 0.36 0.36 95 1010.8
20260509230517 49 0 0.0 0.0 0.00 0.36 0.36 95 1010.8
20260509230040 49 0 0.0 0.0 0.00 0.36 0.36 95 1010.9
20260509225521 49 0 0.0 0.0 0.00 0.36 0.36 95 1010.8
20260509225018 49 0 0.0 0.0 0.00 0.36 0.36 95 1010.9
20260509224536 49 0 0.0 0.0 0.00 0.36 0.36 95 1010.9
20260509224019 49 0 0.0 0.0 0.00 0.36 0.36 95 1010.9
20260509223520 49 0 0.0 0.0 0.00 0.36 0.36 95 1010.9
20260509223043 49 0 0.0 0.0 0.00 0.36 0.36 95 1011.0
20260509222519 49 0 0.0 0.0 0.00 0.36 0.36 95 1011.0
20260509222020 49 0 0.0 0.0 0.00 0.36 0.36 95 1011.0
20260509221537 49 0 0.0 0.0 0.00 0.36 0.36 95 1010.9
20260509221020 49 0 0.0 0.0 0.00 0.36 0.36 95 1011.1
20260509220518 49 0 0.0 0.0 0.00 0.36 0.36 95 1011.1
20260509220038 49 0 0.0 0.0 0.00 0.36 0.36 95 1011.1
20260509215519 49 0 0.0 0.0 0.00 0.36 0.36 95 1011.1
20260509215020 49 0 0.0 0.0 0.00 0.36 0.36 95 1011.3
20260509214538 49 0 0.0 0.0 0.00 0.36 0.36 95 1011.1
20260509214020 49 0 0.0 0.0 0.00 0.36 0.36 95 1011.2
20260509213518 49 0 0.0 0.0 0.00 0.36 0.36 95 1011.1
20260509213037 49 0 0.0 0.0 0.00 0.36 0.36 95 1011.2
20260509212517 49 0 0.0 0.0 0.00 0.36 0.36 95 1011.1
20260509212019 49 0 0.0 0.0 0.00 0.36 0.36 95 1011.2
20260509211536 49 0 0.0 0.0 0.00 0.36 0.36 95 1011.3
20260509211018 49 0 0.0 0.0 0.00 0.36 0.36 95 1011.3
20260509210517 49 0 0.0 0.0 0.01 0.36 0.36 95 1011.4
20260509210037 49 0 0.0 0.0 0.01 0.36 0.36 95 1011.5
20260509205516 49 0 0.0 0.0 0.01 0.36 0.36 95 1011.4
20260509205023 49 0 0.0 0.0 0.01 0.36 0.36 95 1011.5
20260509204536 49 0 0.0 0.0 0.02 0.36 0.36 95 1011.6
20260509204021 49 0 0.0 0.0 0.03 0.36 0.36 95 1011.6
20260509203518 49 0 0.0 0.0 0.03 0.36 0.36 95 1011.5
20260509203032 49 0 0.0 0.0 0.03 0.36 0.36 95 1011.7
20260509202520 49 0 0.0 0.0 0.03 0.36 0.36 95 1011.7
20260509202017 49 0 0.0 0.0 0.03 0.36 0.36 95 1011.7
20260509201542 49 0 0.0 0.0 0.03 0.36 0.36 95 1011.6
20260509201019 49 0 0.0 0.0 0.02 0.35 0.35 95 1011.7
20260509200518 49 0 0.0 0.0 0.03 0.35 0.35 95 1011.8
20260509200045 49 0 0.0 0.0 0.03 0.35 0.35 95 1011.9
20260509195521 49 0 0.0 0.0 0.03 0.35 0.35 95 1011.9
20260509195018 49 0 0.0 0.0 0.03 0.35 0.35 95 1012.0
20260509194537 49 0 0.0 0.0 0.03 0.34 0.34 95 1012.0
20260509194019 49 0 0.0 0.0 0.02 0.33 0.33 95 1012.0
20260509193517 48 0 0.0 0.0 0.02 0.33 0.33 95 1011.9
20260509193042 48 0 0.0 0.0 0.03 0.33 0.33 95 1012.0
20260509192519 48 0 0.0 0.0 0.03 0.33 0.33 95 1012.0
20260509192020 48 0 0.0 0.0 0.03 0.33 0.33 95 1011.9
20260509191534 48 0 0.0 0.0 0.04 0.33 0.33 95 1012.1
20260509191016 48 0 0.0 0.0 0.04 0.33 0.33 95 1012.1
20260509190517 47 0 0.0 0.0 0.03 0.32 0.32 95 1012.2
20260509190035 47 0 0.0 0.0 0.04 0.32 0.32 95 1012.3
20260509185518 47 0 0.0 0.0 0.04 0.32 0.32 95 1012.2
20260509185021 47 0 0.0 0.0 0.04 0.31 0.31 95 1012.2
20260509184542 47 0 0.0 0.0 0.04 0.31 0.31 95 1012.2
20260509184020 47 0 0.0 0.0 0.05 0.31 0.31 95 1012.3
20260509183516 47 0 0.0 0.0 0.06 0.31 0.31 95 1012.3
20260509183038 47 0 0.0 0.0 0.06 0.30 0.30 95 1012.3
20260509182520 47 0 0.0 0.0 0.06 0.30 0.30 95 1012.5
20260509182016 47 0 0.0 0.0 0.07 0.30 0.30 95 1012.5
20260509181544 47 0 0.0 0.0 0.06 0.29 0.29 95 1012.5
20260509181022 47 0 0.0 0.0 0.07 0.29 0.29 95 1012.5
20260509180520 47 0 0.0 0.0 0.08 0.29 0.29 95 1012.6
20260509180037 46 0 0.0 0.0 0.07 0.28 0.28 95 1012.6
20260509175519 47 0 0.0 0.0 0.07 0.28 0.28 95 1012.6
20260509175022 47 0 0.0 0.0 0.07 0.27 0.27 95 1012.5
20260509174534 47 0 0.0 0.0 0.07 0.27 0.27 95 1012.5
20260509174021 47 0 0.0 0.0 0.06 0.26 0.26 95 1012.7
20260509173520 47 0 0.0 0.0 0.05 0.25 0.25 95 1012.6
20260509173037 47 0 0.0 0.0 0.05 0.24 0.24 95 1012.7
20260509172520 47 0 0.0 0.0 0.05 0.24 0.24 95 1012.8
20260509172020 47 0 0.0 0.0 0.05 0.23 0.23 95 1012.8
20260509171544 47 0 0.0 0.0 0.04 0.22 0.22 95 1012.9
20260509171019 47 0 0.0 0.0 0.05 0.22 0.22 95 1012.9
20260509170521 47 0 0.0 0.0 0.04 0.21 0.21 95 1012.9
20260509170034 47 0 0.0 0.0 0.05 0.21 0.21 95 1013.0
20260509165519 47 0 0.0 0.0 0.05 0.21 0.21 95 1013.0
20260509165016 46 0 0.0 0.0 0.04 0.20 0.20 95 1013.1
20260509164537 46 0 0.0 0.0 0.05 0.20 0.20 95 1013.2
20260509164020 46 0 0.0 0.0 0.06 0.20 0.20 95 1013.2
20260509163516 46 0 0.0 0.0 0.06 0.20 0.20 95 1013.3
20260509163036 46 0 0.0 0.0 0.06 0.19 0.19 95 1013.3
20260509162518 46 0 0.0 0.0 0.06 0.19 0.19 95 1013.5
20260509162017 46 0 0.0 0.0 0.06 0.18 0.18 95 1013.5
20260509161536 46 0 0.0 0.0 0.06 0.18 0.18 95 1013.4
20260509161021 46 0 0.0 0.0 0.06 0.17 0.17 95 1013.6
20260509160517 46 0 0.0 0.0 0.06 0.17 0.17 95 1013.6
20260509160038 46 0 0.0 0.0 0.05 0.16 0.16 95 1013.7
20260509155517 46 0 0.0 0.0 0.05 0.16 0.16 95 1013.8
20260509155017 46 0 0.0 0.0 0.05 0.15 0.15 95 1013.9
20260509154537 45 0 0.0 0.0 0.05 0.15 0.15 95 1014.0
20260509154017 45 0 0.0 0.0 0.04 0.14 0.14 95 1014.0
20260509153519 45 0 0.0 0.0 0.05 0.14 0.14 95 1014.2
20260509153039 45 0 0.0 0.0 0.04 0.13 0.13 95 1014.3
20260509152519 45 0 0.0 0.0 0.04 0.13 0.13 95 1014.2
20260509152017 45 0 0.0 0.0 0.03 0.12 0.12 95 1014.2
20260509151537 45 0 0.0 0.0 0.04 0.12 0.12 95 1014.3
20260509151020 45 0 0.0 0.0 0.03 0.11 0.11 95 1014.3
20260509150517 45 0 0.0 0.0 0.04 0.11 0.11 95 1014.2
20260509150036 45 0 0.0 0.0 0.04 0.11 0.11 94 1014.3
20260509145518 45 0 0.0 0.0 0.05 0.11 0.11 94 1014.2
20260509145018 45 0 0.0 0.0 0.04 0.10 0.10 95 1014.2
20260509144556 45 0 0.0 0.0 0.05 0.10 0.10 95 1014.2
20260509144019 45 0 0.0 0.0 0.06 0.10 0.10 95 1014.2
20260509143524 45 0 0.0 0.0 0.06 0.09 0.09 95 1014.1
20260509143043 45 0 0.0 0.0 0.06 0.09 0.09 95 1014.2
20260509142519 45 0 0.0 0.0 0.07 0.09 0.09 95 1014.2
20260509142018 44 0 0.0 0.0 0.06 0.08 0.08 94 1014.1
20260509141542 44 0 0.0 0.0 0.07 0.08 0.08 94 1014.1
20260509141018 44 0 0.0 0.0 0.06 0.07 0.07 94 1014.1
20260509140518 44 0 0.0 0.0 0.06 0.07 0.07 95 1014.1
20260509140037 44 0 0.0 0.0 0.06 0.07 0.07 94 1014.0
20260509135520 43 0 0.0 0.0 0.05 0.06 0.06 94 1014.2
20260509135018 43 0 0.0 0.0 0.06 0.06 0.06 94 1014.1
20260509134537 43 0 0.0 0.0 0.05 0.05 0.05 94 1014.2
20260509134020 43 0 0.0 0.0 0.04 0.04 0.04 94 1014.1
20260509133518 42 0 0.0 0.0 0.03 0.03 0.03 93 1014.1
20260509133037 42 0 0.0 0.0 0.03 0.03 0.03 92 1014.1
20260509132519 42 0 0.0 0.0 0.02 0.02 0.02 92 1014.0
20260509132018 42 0 0.0 0.0 0.02 0.02 0.02 92 1014.1
20260509131541 42 0 0.0 0.0 0.01 0.01 0.01 92 1014.1
20260509131017 42 0 0.0 0.0 0.01 0.01 0.01 91 1014.2
20260509130518 42 0 0.0 0.0 0.01 0.01 0.01 91 1014.2
20260509130036 42 0 0.0 0.0 0.01 0.01 0.01 91 1014.1
20260509125516 42 0 0.0 0.0 0.01 0.01 0.01 90 1014.2
20260509125019 41 0 0.0 0.0 0.00 0.00 0.00 91 1014.1
20260509124543 41 0 0.0 0.0 0.00 0.00 0.00 91 1014.0
20260509124017 40 0 0.0 0.0 0.00 0.00 0.00 90 1014.1
20260509123517 40 0 0.0 0.0 0.00 0.00 0.00 90 1014.1